Regional Weather Roundup
Issued by NWS

Home | Current Version | Previous Version | Graphics & Text | Print | Product List | Glossary On
Versions: 1 2 3 4 5 6 7 8 9 10 11 12 13 14 15 16 17 18 19 20 21 22 23 24 25 26 27 28 29 30 31 32 33 34 35 36 37 38 39 40 41 42 43 44 45 46 47 48 49 50
926
ASUS43 KDTX 150001
RWRMI
MICHIGAN HOURLY REGIONAL WEATHER ROUNDUP
NATIONAL WEATHER SERVICE DETROIT/PONTIAC MI
700 PM EST THU DEC 14 2017

NOTE: "FAIR" INDICATES FEW OR NO CLOUDS BELOW 12,000 FEET WITH NO
SIGNIFICANT WEATHER AND/OR OBSTRUCTION TO VISIBILITY.

MIZ047>049-052>055-059>063-066>070-074>076-081>083-150100-
SOUTHEAST LOWER MICHIGAN

CITY           SKY/WX    TMP DP  RH WIND       PRES   REMARKS
ADRIAN         CLOUDY    13   4  67 W5        30.08R WCI   5
6HR MIN TEMP:  13; 6HR MAX TEMP:  21;

ALMA           FLURRIES  17  11  77 S7        30.03R WCI   8
6HR MIN TEMP:  12; 6HR MAX TEMP:  19;

ANN ARBOR      CLOUDY     6   2  83 SW3       30.06R
BAD AXE        CLOUDY     2  -1  88 SW3       30.01R
6HR MIN TEMP:   1; 6HR MAX TEMP:  16;

CARO           MOCLDY     6   3  88 CALM      30.02S
DETROIT CITY   CLEAR     11   6  81 CALM      30.07R
6HR MIN TEMP:   9; 6HR MAX TEMP:  23;

DETROIT        PTCLDY    20   3  48 SW8       30.08R WCI  10
6HR MIN TEMP:  19; 6HR MAX TEMP:  24; 6HR PCP: TRACE;

FLINT          MOCLDY    11   4  73 SW7       30.04R WCI   0
6HR MIN TEMP:   4; 6HR MAX TEMP:  16;

GROSSE ILE     CLOUDY    16   8  68 W6        30.07R WCI   8
6HR MIN TEMP:  16; 6HR MAX TEMP:  21;

HILLSDALE      CLOUDY    19   9  63 SW3       30.03R
HOWELL         CLOUDY    15   9  74 SW3       30.03S
6HR MIN TEMP:  14; 6HR MAX TEMP:  19;


CITY           SKY/WX    TMP DP  RH WIND       PRES   REMARKS
JACKSON        CLOUDY    19   8  62 S8        30.04R WCI   9
6HR MIN TEMP:  17; 6HR MAX TEMP:  23;

LAMBERTVILLE   CLOUDY     9   4  81 CALM      30.09R
6HR MIN TEMP:   8; 6HR MAX TEMP:  20;

LANSING        CLOUDY    20  11  68 S9        30.04S WCI   9
6HR MIN TEMP:  17; 6HR MAX TEMP:  24;

LAPEER         FAIR       7   4  86 CALM      30.03S
6HR MIN TEMP:   6; 6HR MAX TEMP:  18;

MASON          CLOUDY    17   7  65 CALM      30.04R
6HR MIN TEMP:  12; 6HR MAX TEMP:  20;

MT. CLEMENS    PTCLDY     6   4  91 SW5       30.04R WCI  -3
6HR MIN TEMP:   4; 6HR MAX TEMP:  20;

PONTIAC        PTCLDY    10   7  87 SW3       30.02R
6HR MIN TEMP:  10; 6HR MAX TEMP:  19;

PORT HOPE        N/A     11   4  73 SW8       29.99S WCI  -1
6HR MIN TEMP:  11; 6HR MAX TEMP:  20;

PORT HURON     CLOUDY     0  -4  85 CALM      30.05R
TRI CITIES     PTCLDY    12   7  80 S8        30.03R WCI   0
6HR MIN TEMP:  12; 6HR MAX TEMP:  17;

MIDLAND        FAIR      12   7  79 SW3       30.01R
6HR MIN TEMP:  11; 6HR MAX TEMP:  21;

TROY           CLEAR     17   9  68 SW3       30.07R
SAGINAW HB     CLEAR     12   5  73 SW9       30.03R WCI   0
$$
MIZ043>046-050>051-056>058-064>065-071>073-077>080-150100-
SOUTHWEST LOWER MICHIGAN

CITY           SKY/WX    TMP DP  RH WIND       PRES   REMARKS
BATTLE CREEK   CLOUDY    20  12  71 SW9       30.04R WCI   9
6HR MIN TEMP:  19; 6HR MAX TEMP:  21;

BENTON HARBOR  CLOUDY    22  16  78 S7        30.06R WCI  13
6HR MIN TEMP:  21; 6HR MAX TEMP:  23; 6HR PCP: TRACE;

BIG RAPIDS     CLOUDY    14   9  83 CALM      29.99R
6HR MIN TEMP:  14; 6HR MAX TEMP:  23;

COLDWATER      CLOUDY    20  10  67 SW3       30.05S
6HR MIN TEMP:  17; 6HR MAX TEMP:  24;

HOLLAND        CLOUDY    21  17  84 S6        30.04S WCI  13
6HR MIN TEMP:  19; 6HR MAX TEMP:  22; 6HR PCP: TRACE;

GRAND RAPIDS   LGT SNOW  20  17  88 SW7       30.03R FOG     WCI  11
6HR MIN TEMP:  19; 6HR MAX TEMP:  21; 6HR PCP: TRACE;

IONIA          LGT SNOW  20  17  88 S5        30.02S WCI  13
6HR MIN TEMP:  17; 6HR MAX TEMP:  20;

KALAMAZOO      CLOUDY    21  13  71 S12       30.05R WCI   9
6HR MIN TEMP:  20; 6HR MAX TEMP:  22; 6HR PCP: TRACE;

LUDINGTON      CLOUDY    22  11  63 NW3       30.01S
6HR MIN TEMP:  21; 6HR MAX TEMP:  24;

MARSHALL       CLOUDY    19  10  66 SW6       30.04R WCI  11
6HR MIN TEMP:  19; 6HR MAX TEMP:  25;

MOUNT PLEASANT CLOUDY    20  13  73 SW6       30.00R WCI  13
6HR MIN TEMP:  19; 6HR MAX TEMP:  24;

MUSKEGON       MOCLDY    22  14  71 W6        30.04R WCI  14
6HR MIN TEMP:  19; 6HR MAX TEMP:  22; 6HR PCP:  0.01;

SOUTH HAVEN    CLOUDY    23  18  80 S6        30.05S WCI  15
$$
MIZ016>042-150100-
NORTHERN LOWER MICHIGAN

CITY           SKY/WX    TMP DP  RH WIND       PRES   REMARKS
ALPENA         CLOUDY    18  12  77 S3        29.96S
6HR MIN TEMP:  18; 6HR MAX TEMP:  20; 6HR PCP: TRACE;

BEAVER ISLAND  MOCLDY    23   9  55 NW6       29.95S WCI  15
6HR MIN TEMP:  22; 6HR MAX TEMP:  23;

BELLAIRE       CLOUDY    23  16  76 SW5       29.97S WCI  16
6HR MIN TEMP:  19; 6HR MAX TEMP:  23;

CADILLAC       CLOUDY    17  10  75 W3        29.94S
CHARLEVOIX     CLOUDY    24  12  61 W14       29.98S WCI  11
6HR MIN TEMP:  22; 6HR MAX TEMP:  24;

FRANKFORT      CLOUDY    25  14  63 W8        29.98F WCI  16
GAYLORD        CLOUDY    18  11  74 SW12      29.91S WCI   5
6HR MIN TEMP:  17; 6HR MAX TEMP:  19;

GRAYLING       FLURRIES  19  13  76 W6        29.95S WCI  11
6HR MIN TEMP:  19; 6HR MAX TEMP:  21;

HARBOR SPRINGS CLOUDY    24  11  58 W7        29.94R WCI  16
HOUGHTON LAKE  CLOUDY    19  12  74 W6        29.95S WCI  11
6HR MIN TEMP:  14; 6HR MAX TEMP:  20; 6HR PCP: TRACE;

MANISTEE       MOCLDY    22  13  68 W10       30.00S WCI  11
OSCODA         CLOUDY    17  10  74 SW6       29.98S WCI   9
6HR MIN TEMP:  17; 6HR MAX TEMP:  22;

PELLSTON       CLOUDY    21  11  65 SW3       29.94S
6HR MIN TEMP:  20; 6HR MAX TEMP:  22; 6HR PCP: TRACE;

ROGERS CITY    FLURRIES  19  15  85 SW6       29.97R WCI  10
TRAVERSE CITY  FLURRIES  21  13  71 SW3       29.98S
6HR MIN TEMP:  21; 6HR MAX TEMP:  23; 6HR PCP: TRACE;

$$
MIZ007>008-015-150100-
EASTERN UPPER MICHIGAN

CITY           SKY/WX    TMP DP  RH WIND       PRES   REMARKS
KINROSS        FLURRIES  18  13  80 W10       29.91S WCI   6
6HR MIN TEMP:  11; 6HR MAX TEMP:  18;

MACKINAC ISLAN CLOUDY    23  12  62 NW10      29.92S WCI  12
6HR MIN TEMP:  20; 6HR MAX TEMP:  23;

NEWBERRY       CLOUDY    18  13  82 SW8       29.91S WCI   7
6HR MIN TEMP:  17; 6HR MAX TEMP:  19;

S. S. MARIE    LGT SNOW  12   8  84 E3        29.91S FOG
6HR MIN TEMP:   4; 6HR MAX TEMP:  12; 6HR PCP:  0.02;

MUNISING         N/A     20  11  68 SW6       29.94S WCI  12
6HR MIN TEMP:  20; 6HR MAX TEMP:  23;

$$
MIZ004>006-011>014-085-150100-
CENTRAL UPPER MICHIGAN

CITY           SKY/WX    TMP DP  RH WIND       PRES   REMARKS
MANISTIQUE     CLOUDY    15   6  67 CALM      29.95S
6HR MIN TEMP:  10; 6HR MAX TEMP:  23;

ESCANABA       CLOUDY    14  10  84 CALM      29.97S
6HR MIN TEMP:  13; 6HR MAX TEMP:  23; 6HR PCP: TRACE;

MENOMINEE      CLOUDY    20  13  74 CALM      30.00S
6HR MIN TEMP:  20; 6HR MAX TEMP:  25; 6HR PCP: TRACE;

SAWYER-GWINN   CLOUDY    16  12  86 SW3       29.90S
$$
MIZ001>003-009>011-084-150100-
WESTERN UPPER MICHIGAN

CITY           SKY/WX    TMP DP  RH WIND       PRES   REMARKS
IRON MOUNTAIN  CLOUDY    17   9  70 W5        29.92R WCI  10
6HR MIN TEMP:  17; 6HR MAX TEMP:  22; 6HR PCP: TRACE;

HOUGHTON       LGT SNOW  19  13  77 SW3       29.87F VSB 1
6HR MIN TEMP:  17; 6HR MAX TEMP:  20; 6HR PCP:  0.01;

COPPER HARBOR    N/A     19  10  68 SW5       29.90F WCI  12
6HR MIN TEMP:  19; 6HR MAX TEMP:  22;

IRONWOOD       FLURRIES  16  12  84 SW7       29.92F WCI   6
6HR MIN TEMP:  16; 6HR MAX TEMP:  18;

$$

ABBREVIATIONS USED IN REMARKS
   TC - TEMPERATURE IN CELSIUS
  WCI - WIND CHILL INDEX
   HX - HEAT INDEX
  VSB - VISIBILITY





USA.gov is the U.S. government's official web portal to all federal, state and local government web resources and services.